TimeCDT,TemperatureF,Dew PointF,Humidity,Sea Level PressureIn,VisibilityMPH,Wind Direction,Wind SpeedMPH,Gust SpeedMPH,PrecipitationIn,Events,Conditions,WindDirDegrees,DateUTC
12:15 AM,46.4,34.2,62,29.66,10.0,WSW,16.1,23.0,N/A,,Overcast,240,2013-10-26 05:15:00
12:35 AM,45.9,34.7,65,29.65,10.0,WSW,17.3,26.5,N/A,,Mostly Cloudy,250,2013-10-26 05:35:00
12:55 AM,45.5,34.7,66,29.65,10.0,WSW,15.0,24.2,N/A,,Mostly Cloudy,250,2013-10-26 05:55:00
1:15 AM,45.5,35.1,67,29.65,10.0,West,11.5,-,N/A,,Scattered Clouds,260,2013-10-26 06:15:00
1:35 AM,45.1,35.4,69,29.65,10.0,West,15.0,-,N/A,,Mostly Cloudy,260,2013-10-26 06:35:00
1:55 AM,44.6,35.6,71,29.64,10.0,WSW,11.5,-,N/A,,Mostly Cloudy,250,2013-10-26 06:55:00
2:15 AM,44.6,35.6,71,29.64,10.0,West,9.2,-,N/A,,Overcast,260,2013-10-26 07:15:00
2:35 AM,44.6,35.8,71,29.65,10.0,West,10.4,-,N/A,,Overcast,260,2013-10-26 07:35:00
2:55 AM,44.1,36.1,74,29.64,10.0,West,8.1,-,N/A,,Overcast,260,2013-10-26 07:55:00
3:15 AM,44.1,36.5,75,29.64,10.0,West,8.1,-,N/A,,Overcast,260,2013-10-26 08:15:00
3:35 AM,45.5,35.8,69,29.64,10.0,West,11.5,24.2,N/A,,Overcast,280,2013-10-26 08:35:00
3:55 AM,45.0,35.1,68,29.64,10.0,WNW,17.3,21.9,N/A,,Overcast,290,2013-10-26 08:55:00
4:15 AM,45.1,33.4,64,29.64,10.0,WNW,13.8,20.7,N/A,,Overcast,290,2013-10-26 09:15:00
4:35 AM,44.1,33.8,67,29.66,10.0,NNW,17.3,23.0,N/A,,Overcast,340,2013-10-26 09:35:00
4:55 AM,42.8,32.2,66,29.67,10.0,NW,12.7,21.9,N/A,,Overcast,320,2013-10-26 09:55:00
5:15 AM,42.1,31.6,67,29.68,10.0,WNW,12.7,26.5,N/A,,Overcast,300,2013-10-26 10:15:00
5:35 AM,40.5,31.8,71,29.69,10.0,NW,10.4,-,N/A,,Mostly Cloudy,310,2013-10-26 10:35:00
5:55 AM,39.9,32.0,73,29.69,10.0,NW,15.0,24.2,N/A,,Mostly Cloudy,310,2013-10-26 10:55:00
6:15 AM,39.2,32.0,75,29.70,10.0,NW,12.7,-,N/A,,Mostly Cloudy,320,2013-10-26 11:15:00
6:35 AM,38.7,32.0,77,29.71,10.0,NW,12.7,18.4,N/A,,Scattered Clouds,310,2013-10-26 11:35:00
6:55 AM,38.3,32.0,78,29.71,10.0,NW,13.8,-,N/A,,Mostly Cloudy,310,2013-10-26 11:55:00
7:15 AM,38.7,32.0,77,29.73,10.0,NW,11.5,-,N/A,,Overcast,310,2013-10-26 12:15:00
7:35 AM,38.5,31.8,77,29.74,10.0,NW,12.7,21.9,N/A,,Overcast,320,2013-10-26 12:35:00
7:55 AM,38.3,32.0,78,29.74,10.0,NNW,12.7,18.4,N/A,,Overcast,330,2013-10-26 12:55:00
8:15 AM,38.3,32.2,79,29.76,10.0,North,12.7,18.4,N/A,,Light Drizzle,350,2013-10-26 13:15:00
8:35 AM,36.7,32.9,86,29.77,10.0,NW,12.7,17.3,N/A,,Overcast,320,2013-10-26 13:35:00
8:55 AM,37.0,33.8,88,29.78,10.0,NNW,15.0,19.6,N/A,,Overcast,330,2013-10-26 13:55:00
9:15 AM,36.7,32.9,86,29.79,10.0,NW,15.0,28.8,N/A,,Overcast,320,2013-10-26 14:15:00
9:35 AM,37.6,32.5,82,29.80,10.0,NNW,16.1,20.7,N/A,,Scattered Clouds,330,2013-10-26 14:35:00
9:55 AM,39.6,31.5,73,29.80,10.0,NNW,17.3,26.5,N/A,,Scattered Clouds,330,2013-10-26 14:55:00
10:15 AM,39.4,29.3,67,29.81,10.0,NNW,18.4,26.5,N/A,,Mostly Cloudy,330,2013-10-26 15:15:00
10:35 AM,40.1,29.7,66,29.81,10.0,NW,13.8,21.9,N/A,,Overcast,310,2013-10-26 15:35:00
10:55 AM,40.1,29.5,66,29.82,10.0,NW,11.5,25.3,N/A,,Overcast,310,2013-10-26 15:55:00
11:15 AM,40.1,29.8,67,29.83,10.0,NW,19.6,27.6,N/A,,Overcast,310,2013-10-26 16:15:00
11:35 AM,38.1,32.0,79,29.85,10.0,NW,19.6,25.3,N/A,,Light Drizzle,320,2013-10-26 16:35:00
11:55 AM,36.0,32.7,88,29.86,5.0,NW,18.4,27.6,N/A,Rain,Light Rain,310,2013-10-26 16:55:00
12:15 PM,38.7,34.0,83,29.87,10.0,NW,16.1,20.7,N/A,,Scattered Clouds,310,2013-10-26 17:15:00
12:35 PM,40.8,32.4,72,29.87,10.0,NW,19.6,28.8,N/A,,Mostly Cloudy,320,2013-10-26 17:35:00
12:55 PM,39.9,30.4,69,29.87,10.0,NW,17.3,25.3,N/A,,Mostly Cloudy,320,2013-10-26 17:55:00
1:15 PM,42.6,30.6,62,29.88,10.0,NW,19.6,26.5,N/A,,Mostly Cloudy,310,2013-10-26 18:15:00
1:35 PM,37.4,32.9,84,29.90,7.0,North,10.4,25.3,N/A,,Mostly Cloudy,360,2013-10-26 18:35:00
1:55 PM,40.3,33.1,75,29.90,10.0,NNW,12.7,16.1,N/A,,Mostly Cloudy,340,2013-10-26 18:55:00
2:15 PM,39.7,32.9,77,29.91,10.0,North,13.8,-,N/A,,Mostly Cloudy,350,2013-10-26 19:15:00
2:35 PM,39.2,31.1,73,29.91,10.0,NNW,15.0,24.2,N/A,,Mostly Cloudy,340,2013-10-26 19:35:00
2:55 PM,39.9,30.7,70,29.92,10.0,NNW,12.7,-,N/A,,Overcast,330,2013-10-26 19:55:00
3:15 PM,39.2,31.1,73,29.93,10.0,North,12.7,-,N/A,,Overcast,360,2013-10-26 20:15:00
3:35 PM,40.3,30.9,69,29.93,10.0,North,10.4,17.3,N/A,,Mostly Cloudy,350,2013-10-26 20:35:00
3:55 PM,39.6,29.3,67,29.94,10.0,NNW,15.0,20.7,N/A,,Overcast,340,2013-10-26 20:55:00
4:15 PM,40.6,28.6,62,29.94,10.0,NNW,17.3,21.9,N/A,,Overcast,330,2013-10-26 21:15:00
4:35 PM,39.4,26.2,59,29.95,10.0,NNW,12.7,19.6,N/A,,Overcast,330,2013-10-26 21:35:00
4:55 PM,39.2,26.6,61,29.95,10.0,NNW,12.7,17.3,N/A,,Overcast,330,2013-10-26 21:55:00
5:15 PM,38.7,26.8,62,29.96,10.0,NNW,15.0,18.4,N/A,,Overcast,340,2013-10-26 22:15:00
5:35 PM,38.3,26.6,63,29.97,10.0,NNW,11.5,18.4,N/A,,Overcast,330,2013-10-26 22:35:00
5:55 PM,38.3,26.1,61,29.97,10.0,NNW,8.1,-,N/A,,Overcast,330,2013-10-26 22:55:00
6:15 PM,37.8,25.9,62,29.98,10.0,NNW,8.1,-,N/A,,Overcast,330,2013-10-26 23:15:00
6:35 PM,37.8,25.5,61,29.99,10.0,NNW,11.5,-,N/A,,Overcast,340,2013-10-26 23:35:00
6:55 PM,37.6,24.8,60,30.00,10.0,NNW,10.4,16.1,N/A,,Overcast,330,2013-10-26 23:55:00
7:15 PM,37.4,25.7,63,30.00,10.0,NNW,8.1,-,N/A,,Overcast,330,2013-10-27 00:15:00
7:35 PM,37.4,25.9,63,30.00,10.0,NNW,9.2,-,N/A,,Overcast,330,2013-10-27 00:35:00
7:55 PM,36.9,26.4,66,30.00,10.0,NW,5.8,-,N/A,,Overcast,320,2013-10-27 00:55:00
8:15 PM,36.1,27.3,70,30.00,10.0,Calm,Calm,-,N/A,,Overcast,0,2013-10-27 01:15:00
8:35 PM,35.8,28.0,73,30.00,10.0,West,3.5,-,N/A,,Overcast,260,2013-10-27 01:35:00
8:55 PM,36.1,28.0,72,30.00,10.0,Calm,Calm,-,N/A,,Overcast,0,2013-10-27 01:55:00
9:15 PM,36.0,28.4,74,30.00,10.0,Calm,Calm,-,N/A,,Overcast,0,2013-10-27 02:15:00
9:35 PM,35.2,27.7,74,30.00,10.0,Calm,Calm,-,N/A,,Overcast,0,2013-10-27 02:35:00
9:55 PM,33.8,27.5,78,30.01,10.0,West,3.5,-,N/A,,Overcast,280,2013-10-27 02:55:00
10:15 PM,34.2,28.0,78,30.01,10.0,West,3.5,-,N/A,,Overcast,280,2013-10-27 03:15:00
10:35 PM,34.7,27.7,76,30.00,10.0,West,3.5,-,N/A,,Overcast,280,2013-10-27 03:35:00
10:55 PM,34.3,28.0,78,29.99,10.0,West,3.5,-,N/A,,Overcast,270,2013-10-27 03:55:00
11:15 PM,33.8,28.4,81,29.99,10.0,West,3.5,-,N/A,,Overcast,270,2013-10-27 04:15:00
11:35 PM,33.8,28.8,82,29.98,10.0,Calm,Calm,-,N/A,,Overcast,0,2013-10-27 04:35:00
11:55 PM,33.1,28.6,84,29.98,10.0,WSW,4.6,-,N/A,,Overcast,250,2013-10-27 04:55:00